GW4014 Weather Reports


Display with metric or nautical units.
time (UTC)temp
F
wind
direction
speed
MPH
gust
MPH
rain 1hr
in
rain 24hr
in
rain mn
in
humidity
%
barometer
mb
20260505011135 67 90 0.0 1.0 0.00 0.00 0.00 44 1011.0
20260505010634 67 90 1.0 1.0 0.00 0.00 0.00 44 1012.0
20260505010134 67 133 0.0 1.0 0.00 0.00 0.00 43 1011.0
20260505005634 67 107 0.0 1.0 0.00 0.00 0.00 43 1011.0
20260505005134 68 113 0.0 1.0 0.00 0.00 0.00 42 1011.0
20260505004634 68 53 0.0 1.0 0.00 0.00 0.00 42 1011.0
20260505004135 69 43 0.0 2.0 0.00 0.00 0.00 42 1011.0
20260505003634 69 49 2.0 2.0 0.00 0.00 0.00 40 1011.0
20260505003134 69 90 0.0 1.0 0.00 0.00 0.00 40 1011.0
20260505002635 69 76 1.0 5.0 0.00 0.00 0.00 40 1011.0
20260505002134 69 90 0.0 2.0 0.00 0.00 0.00 40 1011.0
20260505000958 70 122 0.0 2.0 0.00 0.00 0.00 39 1011.0
20260505000458 70 54 1.0 2.0 0.00 0.00 0.00 39 1011.0
20260504235958 70 141 0.0 3.0 0.00 0.00 0.00 39 1011.0
20260504235459 70 69 1.0 3.0 0.00 0.00 0.00 39 1011.0
20260504234958 70 37 1.0 4.0 0.00 0.00 0.00 39 1011.0
20260504234459 70 105 1.0 5.0 0.00 0.00 0.00 39 1011.0
20260504233957 70 59 2.0 3.0 0.00 0.00 0.00 39 1011.0
20260504233459 71 120 2.0 7.0 0.00 0.00 0.00 38 1011.0
20260504232957 71 90 0.0 6.0 0.00 0.00 0.00 38 1011.0
20260504232245 71 110 5.0 8.0 0.00 0.00 0.00 37 1011.0
20260504231744 71 101 1.0 4.0 0.00 0.00 0.00 37 1011.0
20260504231245 71 74 1.0 6.0 0.00 0.00 0.00 36 1011.0
20260504230744 72 179 0.0 5.0 0.00 0.00 0.00 36 1011.0
20260504230244 72 76 2.0 3.0 0.00 0.00 0.00 35 1011.0
20260504225745 72 49 2.0 8.0 0.00 0.00 0.00 37 1011.0
20260504225244 72 114 2.0 5.0 0.00 0.00 0.00 35 1011.0
20260504224744 72 136 1.0 7.0 0.00 0.00 0.00 35 1011.0
20260504224031 72 100 3.0 6.0 0.00 0.00 0.00 35 1011.0
20260504223531 72 134 2.0 10.0 0.00 0.00 0.00 34 1011.0
20260504222819 72 3 4.0 9.0 0.00 0.00 0.00 33 1011.0
20260504222318 72 98 2.0 13.0 0.00 0.00 0.00 33 1011.0
20260504221818 73 118 2.0 9.0 0.00 0.00 0.00 33 1011.0
20260504221318 73 323 1.0 8.0 0.00 0.00 0.00 33 1011.0
20260504220818 73 49 1.0 8.0 0.00 0.00 0.00 34 1011.0
20260504220319 73 65 2.0 5.0 0.00 0.00 0.00 33 1011.0
20260504215818 74 130 3.0 7.0 0.00 0.00 0.00 32 1011.0
20260504215320 75 74 1.0 4.0 0.00 0.00 0.00 34 1011.0
20260504214820 76 106 1.0 5.0 0.00 0.00 0.00 30 1011.0
20260504214318 76 90 0.0 4.0 0.00 0.00 0.00 31 1011.0
20260504213818 75 192 1.0 9.0 0.00 0.00 0.00 32 1011.0
20260504213108 75 26 2.0 7.0 0.00 0.00 0.00 32 1011.0
20260504212607 75 76 1.0 9.0 0.00 0.00 0.00 33 1011.0
20260504212107 75 116 3.0 4.0 0.00 0.00 0.00 33 1011.0
20260504211607 74 234 1.0 1.0 0.00 0.00 0.00 33 1011.0
20260504210218 74 337 2.0 5.0 0.00 0.00 0.00 35 1011.0
20260504205718 74 254 0.0 7.0 0.00 0.00 0.00 32 1011.0
20260504205218 74 188 4.0 5.0 0.00 0.00 0.00 32 1011.0
20260504204717 74 30 1.0 13.0 0.00 0.00 0.00 33 1011.0
20260504204217 74 42 0.0 5.0 0.00 0.00 0.00 32 1011.0
20260504203505 74 279 0.0 7.0 0.00 0.00 0.00 31 1011.0
20260504202543 75 29 1.0 6.0 0.00 0.00 0.00 32 1011.0
20260504202044 75 83 3.0 8.0 0.00 0.00 0.00 31 1011.0
20260504201543 75 60 3.0 5.0 0.00 0.00 0.00 32 1011.0
20260504201044 76 84 5.0 7.0 0.00 0.00 0.00 30 1011.0
20260504200545 77 60 2.0 6.0 0.00 0.00 0.00 31 1011.0
20260504200043 77 90 0.0 8.0 0.00 0.00 0.00 30 1011.0
20260504195544 78 50 2.0 8.0 0.00 0.00 0.00 30 1012.0
20260504195043 79 179 0.0 6.0 0.00 0.00 0.00 29 1012.0
20260504194331 80 109 5.0 6.0 0.00 0.00 0.00 30 1012.0
20260504193620 81 17 1.0 5.0 0.00 0.00 0.00 28 1012.0
20260504193121 81 59 4.0 5.0 0.00 0.00 0.00 30 1012.0
20260504192410 81 111 2.0 5.0 0.00 0.00 0.00 26 1012.0
20260504191910 82 64 0.0 7.0 0.00 0.00 0.00 27 1012.0
20260504191408 82 254 1.0 5.0 0.00 0.00 0.00 26 1012.0
20260504190910 82 334 1.0 4.0 0.00 0.00 0.00 30 1013.0
20260504190408 80 130 0.0 6.0 0.00 0.00 0.00 28 1012.0
20260504185908 80 0 3.0 6.0 0.00 0.00 0.00 27 1013.0
20260504185408 80 283 1.0 6.0 0.00 0.00 0.00 27 1013.0
20260504184908 80 118 0.0 4.0 0.00 0.00 0.00 28 1013.0
20260504184408 81 79 2.0 5.0 0.00 0.00 0.00 27 1013.0
20260504183909 80 53 2.0 8.0 0.00 0.00 0.00 28 1013.0
20260504183408 79 94 3.0 6.0 0.00 0.00 0.00 28 1013.0
20260504182909 80 287 0.0 7.0 0.00 0.00 0.00 28 1013.0
20260504182408 80 49 3.0 7.0 0.00 0.00 0.00 28 1013.0
20260504181908 80 130 1.0 8.0 0.00 0.00 0.00 28 1013.0
20260504181408 79 188 0.0 8.0 0.00 0.00 0.00 27 1013.0
20260504180909 79 71 2.0 7.0 0.00 0.00 0.00 27 1013.0
20260504180408 78 58 3.0 7.0 0.00 0.00 0.00 27 1013.0
20260504175909 78 75 3.0 9.0 0.00 0.00 0.00 26 1013.0
20260504175409 79 147 1.0 7.0 0.00 0.00 0.00 25 1013.0
20260504174908 80 90 1.0 8.0 0.00 0.00 0.00 25 1013.0
20260504174408 80 72 1.0 5.0 0.00 0.00 0.00 26 1013.0
20260504173908 78 97 4.0 8.0 0.00 0.00 0.00 24 1013.0
20260504173409 79 254 0.0 5.0 0.00 0.00 0.00 27 1014.0
20260504172908 78 46 1.0 6.0 0.00 0.00 0.00 25 1014.0
20260504172158 78 31 3.0 7.0 0.00 0.00 0.00 26 1014.0
20260504171657 78 15 5.0 13.0 0.00 0.00 0.00 24 1014.0
20260504171157 78 73 1.0 5.0 0.00 0.00 0.00 26 1014.0
20260504170657 78 59 1.0 6.0 0.00 0.00 0.00 26 1014.0
20260504160233 75 8 1.0 8.0 0.00 0.00 0.00 29 1015.0
20260504151058 71 106 2.0 3.0 0.00 0.00 0.00 31 1015.0
20260504150558 69 127 1.0 4.0 0.00 0.00 0.00 33 1015.0
20260504141134 61 74 1.0 5.0 0.00 0.00 0.00 43 1015.0
20260504140633 61 197 1.0 4.0 0.00 0.00 0.00 44 1015.0
20260504140133 60 63 3.0 6.0 0.00 0.00 0.00 44 1015.0
20260504130422 54 77 6.0 7.0 0.00 0.00 0.00 52 1015.0
20260504110110 47 143 1.0 2.0 0.00 0.00 0.00 66 1016.0
20260504100358 48 132 1.0 2.0 0.00 0.00 0.00 68 1016.0
20260504081933 48 131 0.0 1.0 0.00 0.00 0.00 66 1016.0
20260504081433 48 90 0.0 1.0 0.00 0.00 0.00 65 1016.0
20260504080933 48 90 0.0 1.0 0.00 0.00 0.00 64 1016.0
20260504080433 49 107 1.0 1.0 0.00 0.00 0.00 63 1016.0
20260504070221 47 90 0.0 1.0 0.00 0.00 0.00 63 1016.0
20260504050623 46 90 0.0 1.0 0.00 0.00 0.00 64 1016.0
20260504050123 46 128 0.0 1.0 0.00 0.00 0.00 62 1016.0
20260504045623 46 90 0.0 1.0 0.00 0.00 0.00 64 1016.0
20260504045124 46 179 0.0 1.0 0.00 0.00 0.00 62 1016.0
20260504044623 46 0 0.0 1.0 0.00 0.00 0.00 60 1016.0
20260504043913 46 179 0.0 2.0 0.00 0.00 0.00 62 1016.0
20260504043412 46 179 1.0 1.0 0.00 0.00 0.00 64 1016.0
20260504042912 46 179 0.0 1.0 0.00 0.00 0.00 62 1016.0
20260504042412 46 0 0.0 1.0 0.00 0.00 0.00 58 1016.0
20260504041912 46 281 0.0 1.0 0.00 0.00 0.00 59 1016.0
20260504041412 46 90 0.0 1.0 0.00 0.00 0.00 61 1016.0
20260504040912 46 179 0.0 2.0 0.00 0.00 0.00 63 1016.0
20260504040413 46 142 0.0 1.0 0.00 0.00 0.00 59 1016.0
20260504035912 47 118 0.0 1.0 0.00 0.00 0.00 60 1016.0
20260504035412 47 179 0.0 1.0 0.00 0.00 0.00 58 1016.0
20260504034912 47 0 0.0 2.0 0.00 0.00 0.00 58 1016.0
20260504034413 47 163 1.0 1.0 0.00 0.00 0.00 54 1016.0
20260504033448 47 148 0.0 1.0 0.00 0.00 0.00 54 1016.0
20260504032526 47 179 0.0 1.0 0.00 0.00 0.00 54 1016.0
20260504032026 47 139 0.0 2.0 0.00 0.00 0.00 54 1016.0
20260504031527 47 138 0.0 2.0 0.00 0.00 0.00 56 1016.0
20260504031026 47 159 1.0 1.0 0.00 0.00 0.00 55 1016.0
20260504030527 47 66 0.0 1.0 0.00 0.00 0.00 57 1016.0
20260504030026 48 0 0.0 1.0 0.00 0.00 0.00 58 1016.0
20260504025526 48 42 0.0 1.0 0.00 0.00 0.00 55 1016.0
20260504025026 49 64 0.0 1.0 0.00 0.00 0.00 56 1016.0
20260504024527 49 29 0.0 2.0 0.00 0.00 0.00 54 1016.0
20260504024026 49 179 1.0 1.0 0.00 0.00 0.00 53 1016.0
20260504023527 49 90 0.0 0.0 0.00 0.00 0.00 54 1016.0
20260504023027 49 65 0.0 1.0 0.00 0.00 0.00 52 1016.0
20260504022526 49 60 0.0 1.0 0.00 0.00 0.00 57 1016.0
20260504022026 50 168 1.0 1.0 0.00 0.00 0.00 48 1016.0
20260504021314 50 138 0.0 1.0 0.00 0.00 0.00 49 1016.0
20260504020814 51 149 0.0 1.0 0.00 0.00 0.00 47 1016.0
20260504020313 51 134 1.0 2.0 0.00 0.00 0.00 47 1016.0
20260504015813 51 163 2.0 2.0 0.00 0.00 0.00 45 1016.0
20260504015313 51 90 1.0 1.0 0.00 0.00 0.00 48 1016.0
20260504014813 51 156 0.0 1.0 0.00 0.00 0.00 45 1016.0
20260504014313 51 160 0.0 1.0 0.00 0.00 0.00 47 1016.0
20260504013814 51 163 1.0 1.0 0.00 0.00 0.00 48 1016.0
20260504013100 51 71 1.0 1.0 0.00 0.00 0.00 50 1016.0
20260504012559 52 90 1.0 1.0 0.00 0.00 0.00 47 1016.0
20260504012100 52 90 0.0 1.0 0.00 0.00 0.00 47 1016.0
20260504011600 53 203 0.0 1.0 0.00 0.00 0.00 45 1016.0